This is the latest recevied weather packets stored in our database for station/object KM8ICE-10. If no packets are shown the sender has not sent any weather packets the latest 10 day(s).
| Time | Temp. | Humidity | Pressure | Rain* | Wind** | Luminosity | Snow |
|---|---|---|---|---|---|---|---|
| 1777845607 | 18.33° C | 32% | 1015.7 hPa | 0 mm | - | - | - |
| 1777845008 | 18.89° C | 31% | 1016.3 hPa | 0 mm | - | - | - |
| 1777844407 | 18.33° C | 32% | 1016.3 hPa | 0 mm | - | - | - |
| 1777843207 | 18.33° C | 30% | 1016.8 hPa | 0 mm | - | - | - |
| 1777842608 | 19.44° C | 31% | 1016.4 hPa | 0 mm | - | - | - |
| 1777842008 | 19.44° C | 29% | 1016.3 hPa | 0 mm | - | - | - |
| 1777841407 | 19.44° C | 29% | 1016.6 hPa | 0 mm | - | - | - |
| 1777840807 | 19.44° C | 32% | 1016.9 hPa | 0 mm | - | - | - |
| 1777840207 | 19.44° C | 30% | 1017.1 hPa | 0 mm | - | - | - |
| 1777839607 | 19.44° C | 29% | 1017.4 hPa | 0 mm | - | - | - |
| 1777839007 | 19.44° C | 30% | 1017.4 hPa | 0 mm | - | - | - |
| 1777838407 | 18.89° C | 28% | 1017.5 hPa | 0 mm | - | - | - |
| 1777837808 | 18.89° C | 29% | 1017.8 hPa | 0 mm | - | - | - |
| 1777837207 | 19.44° C | 30% | 1018.2 hPa | 0 mm | - | - | - |
| 1777836007 | 18.89° C | 29% | 1018.8 hPa | 0 mm | - | - | - |
| 1777834807 | 18.33° C | 29% | 1019 hPa | 0 mm | - | - | - |
| 1777834207 | 17.78° C | 30% | 1019.2 hPa | 0 mm | - | - | - |
| 1777833607 | 17.78° C | 30% | 1019.3 hPa | 0 mm | - | - | - |
| 1777833007 | 18.33° C | 29% | 1019.4 hPa | 0 mm | - | - | - |
| 1777832407 | 18.33° C | 30% | 1019.6 hPa | 0 mm | - | - | - |
| 1777831807 | 17.78° C | 28% | 1019.7 hPa | 0 mm | - | - | - |
| 1777831207 | 17.78° C | 31% | 1019.8 hPa | 0 mm | - | - | - |
| 1777830607 | 17.78° C | 30% | 1020 hPa | 0 mm | - | - | - |
| 1777830008 | 17.22° C | 31% | 1020.1 hPa | 0 mm | - | - | - |
| 1777829408 | 17.22° C | 30% | 1020.3 hPa | 0 mm | - | - | - |
* Rain latest hour (hover to see other rain measurements)
** Current wind speed in m/s (hover to see current wind gust speed)